Home   Weather   Varel   Past weeks

Flag for Germany Past Weather in Varel, Lower Saxony, Germany — Yesterday and Last 2 Weeks

46 °F

Passing clouds.

Feels Like: 46 °F
Forecast: 35 / 49 °F
Wind: 2 mph from East

Location: Wittmundhaven

Current Time: Oct 25, 2016 at 7:26:02 PM

Latest Report: Oct 25, 2016 at 6:20 PM

Visibility: N/A

Pressure: 30.30 "Hg

Humidity: 82%

Dew Point: 41 °F

Location of VarelLocation

Past Weather in Varel — Graph


Varel Temperature Yesterday

Maximum temperature yesterday: 46 °F (at 1:20 PM)
Minimum temperature yesterday: 39 °F (at 1:20 AM)
Average temperature yesterday: 43 °F

High & Low Weather Summary for the Past Weeks

High61 °F (Oct 16, 2:20 PM)100% (Oct 10, 11:20 PM)30.27 "Hg (Oct 10, 11:20 PM)
Low37 °F (Oct 22, 7:20 AM)63% (Oct 16, 2:20 PM)29.74 "Hg (Oct 15, 3:20 AM)
Average47 °F90%30.03 "Hg
* Reported Oct 10 5:20 PM — Oct 25 5:20 PM, Varel, Weather by CustomWeather, © 2016

Note: Actual official high and low records may vary slightly from our data, if they occured in-between our weather recording intervals... More about our weather records


Varel Weather History for the Previous 24 Hours

Scroll right to see more
Time TempWeatherWind HumidityBarometerVisibility
5:20 PM
Tue, Oct 25
48 °FScattered clouds.6 mph76%30.27 "HgN/A
4:20 PM50 °FScattered clouds.7 mph71%30.27 "HgN/A
3:20 PM52 °FScattered clouds.7 mph72%30.24 "HgN/A
2:20 PM52 °FScattered clouds.7 mph72%30.24 "HgN/A
1:20 PM50 °FScattered clouds.8 mph76%30.24 "HgN/A
12:20 PM50 °FScattered clouds.8 mph76%30.21 "HgN/A
11:20 AM48 °FScattered clouds.8 mph87%30.21 "Hg4 mi
10:20 AM46 °FFog.3 mph93%30.21 "Hg2 mi
10:01 AM45 °FFog.2 mph100%30.18 "Hg2 mi
9:20 AM39 °FFog.1 mph100%30.18 "Hg0 mi
8:20 AM43 °FFog.6 mph100%30.15 "Hg2 mi
7:20 AM43 °FFog.6 mph100%30.12 "Hg2 mi
6:20 AM45 °FFog.7 mph93%30.12 "Hg2 mi
5:20 AM43 °FFog.8 mph100%30.09 "Hg1 mi
4:20 AM43 °FFog.7 mph100%30.09 "Hg2 mi
3:20 AM43 °FFog.8 mph100%30.07 "Hg2 mi
2:20 AM43 °FFog.7 mph93%30.07 "Hg2 mi
1:20 AM43 °FFog.8 mph93%30.07 "Hg3 mi
12:20 AM43 °FFog.8 mph100%30.07 "Hg3 mi
11:20 PM
Mon, Oct 24
45 °FPassing clouds.7 mph87%30.04 "Hg4 mi
10:20 PM45 °FPassing clouds.10 mph87%30.04 "Hg4 mi
9:20 PM45 °FPassing clouds.8 mph87%30.04 "Hg4 mi
8:20 PM46 °FFog.9 mph82%30.04 "Hg3 mi
7:20 PM45 °FFog.9 mph93%30.04 "Hg3 mi
Weather by CustomWeather, © 2016

See weather overviewHow to use our weather pages